FW4236 Weather Reports


time (UTC)temp
F
wind
direction
speed
knots
gust
knots
rain 1hr
in
rain 24hr
in
rain mn
in
humidity
%
barometer
mb
20260507023036 68 153 0.0 3.5 0.00 0.00 0.00 62 970.6
20260507021538 69 217 0.0 1.7 0.00 0.00 0.00 60 970.5
20260507020042 71 195 0.0 6.1 0.00 0.00 0.00 57 970.4
20260507014538 72 225 0.9 4.3 0.00 0.00 0.00 56 970.3
20260507013046 75 243 1.7 6.1 0.00 0.00 0.00 53 970.3
20260507011534 76 148 1.7 7.0 0.00 0.00 0.00 52 970.1
20260507010036 76 192 0.9 4.3 0.00 0.00 0.00 52 970.0
20260507004529 75 143 0.9 7.0 0.00 0.00 0.00 52 969.9
20260507003027 77 140 0.0 7.8 0.00 0.00 0.00 50 969.8
20260507001530 78 147 1.7 7.0 0.00 0.00 0.00 49 969.7
20260507000024 78 255 0.9 8.7 0.00 0.00 0.00 49 969.7
20260506234529 78 138 0.9 7.0 0.00 0.00 0.00 48 969.8
20260506233021 78 196 2.6 7.0 0.00 0.00 0.00 48 969.8
20260506231519 78 244 2.6 7.8 0.00 0.00 0.00 48 969.8
20260506230016 78 222 1.7 6.1 0.00 0.00 0.00 48 970.0
20260506224514 78 242 1.7 7.0 0.00 0.00 0.00 48 970.0
20260506223012 79 200 2.6 7.0 0.00 0.00 0.00 47 970.1
20260506221509 79 248 1.7 7.8 0.00 0.00 0.00 48 970.3
20260506220015 79 137 2.6 9.6 0.00 0.00 0.00 47 970.5
20260506214505 79 79 0.9 7.0 0.00 0.00 0.00 46 970.8
20260506213002 79 188 3.5 7.0 0.00 0.00 0.00 46 971.0
20260506211610 79 234 1.7 7.8 0.00 0.00 0.00 46 971.0
20260506210056 78 254 0.9 4.3 0.00 0.00 0.00 45 971.0
20260506204552 77 220 0.9 7.8 0.00 0.00 0.00 45 971.2
20260506203052 78 270 4.3 7.8 0.00 0.00 0.00 44 971.2
20260506201547 76 140 0.9 6.1 0.00 0.00 0.00 48 971.4
20260506200047 74 245 0.9 7.0 0.00 0.00 0.00 48 971.6
20260506194548 74 236 2.6 8.7 0.00 0.00 0.00 47 971.8
20260506193042 75 151 2.6 7.0 0.00 0.00 0.00 49 972.0
20260506191538 73 242 2.6 7.8 0.00 0.00 0.00 51 972.1
20260506190036 74 277 3.5 6.1 0.00 0.00 0.00 50 972.2
20260506184533 72 275 2.6 5.2 0.00 0.00 0.00 52 972.2
20260506183034 71 27 0.9 7.8 0.00 0.00 0.00 53 972.3
20260506181526 70 253 0.0 4.3 0.00 0.00 0.00 55 972.4
20260506180022 69 256 1.7 7.0 0.00 0.00 0.00 56 972.4
20260506174518 67 253 0.9 6.1 0.00 0.00 0.00 59 972.5
20260506173020 66 169 0.9 4.3 0.00 0.00 0.00 59 972.5
20260506171511 65 239 1.7 6.1 0.00 0.00 0.00 61 972.5
20260506170011 64 238 0.9 4.3 0.00 0.00 0.00 62 972.4
20260506164505 64 170 0.0 3.5 0.00 0.00 0.00 64 972.3
20260506163001 61 227 0.9 4.3 0.00 0.00 0.00 67 972.4
20260506161557 59 229 0.0 3.5 0.00 0.00 0.00 72 972.5
20260506160106 58 238 2.6 4.3 0.00 0.00 0.00 73 972.5
20260506154552 57 229 0.9 4.3 0.00 0.00 0.00 75 972.5
20260506153043 56 233 0.0 3.5 0.00 0.00 0.00 77 972.6
20260506151541 56 225 0.0 2.6 0.00 0.00 0.00 77 972.7
20260506150039 56 233 0.0 2.6 0.00 0.00 0.00 76 972.6
20260506144536 56 113 0.0 1.7 0.00 0.00 0.00 79 972.6
20260506143036 54 111 0.9 1.7 0.00 0.00 0.00 82 972.6
20260506141528 52 63 0.0 1.7 0.00 0.00 0.00 85 972.6
20260506140023 50 10 0.0 0.0 0.00 0.00 0.00 85 972.4
20260506134520 50 10 0.0 1.7 0.00 0.00 0.00 86 972.1
20260506133017 49 54 0.9 2.6 0.00 0.00 0.00 85 972.0
20260506131517 49 44 0.0 2.6 0.00 0.00 0.00 84 972.0
20260506130017 49 36 1.7 3.5 0.00 0.00 0.00 85 972.0
20260506124512 49 37 0.9 2.6 0.00 0.00 0.00 85 971.6
20260506123011 49 48 0.9 2.6 0.00 0.00 0.00 84 971.6
20260506121510 49 29 1.7 3.5 0.00 0.00 0.00 84 971.6
20260506120009 49 39 0.9 2.6 0.00 0.00 0.00 84 971.4
20260506114510 50 39 0.0 4.3 0.00 0.00 0.00 84 971.5
20260506113009 50 31 1.7 4.3 0.00 0.00 0.00 85 971.5
20260506111506 50 36 1.7 5.2 0.00 0.00 0.00 86 971.5
20260506110006 49 38 1.7 2.6 0.00 0.00 0.00 87 971.3
20260506104504 49 30 1.7 3.5 0.00 0.00 0.00 87 971.5
20260506103005 50 40 0.9 2.6 0.00 0.00 0.00 86 971.5
20260506101502 50 53 0.9 2.6 0.00 0.00 0.00 86 971.5
20260506100100 49 31 1.7 3.5 0.00 0.00 0.00 87 971.5
20260506094558 49 178 0.0 0.0 0.00 0.00 0.00 88 971.5
20260506093057 49 185 0.0 1.7 0.00 0.00 0.00 89 971.7
20260506091555 49 185 0.0 0.0 0.00 0.00 0.00 88 971.7
20260506090053 49 186 0.0 0.0 0.00 0.00 0.00 88 971.8
20260506084552 49 186 0.0 0.0 0.00 0.00 0.00 87 972.0
20260506083051 50 23 0.0 0.0 0.00 0.00 0.00 86 972.0
20260506081552 50 28 0.0 0.0 0.00 0.00 0.00 87 972.0
20260506073053 50 24 0.0 0.0 0.00 0.00 0.00 85 972.1
20260506071551 50 23 0.0 0.0 0.00 0.00 0.00 84 972.1
20260506070104 50 25 0.0 0.0 0.00 0.00 0.00 84 971.8
20260506061539 51 28 0.0 0.0 0.00 0.00 0.00 82 971.4
20260506044540 53 17 0.0 0.0 0.00 0.00 0.00 77 970.7
20260506043030 53 19 0.0 0.0 0.00 0.00 0.00 76 970.6
20260506041528 54 21 0.0 0.0 0.00 0.00 0.00 74 970.4
20260506040027 54 19 0.0 0.0 0.00 0.00 0.00 73 970.2
20260506034525 55 22 0.0 0.0 0.00 0.00 0.00 71 969.9
20260506033024 55 27 0.0 0.9 0.00 0.00 0.00 71 969.9
20260506031525 56 360 0.0 0.9 0.00 0.00 0.00 69 969.7
20260506030022 57 360 0.0 0.9 0.00 0.00 0.00 67 969.4
20260506024528 59 16 0.0 1.7 0.00 0.00 0.00 65 969.2